,,,PA_Meas_PMT16A,,PR_Meas_QMR101_102,,RH_Meas_QMH101,,SR_Meas_QMS101,,TA_Meas_QMH101,,GenWind,,GenWind,
date,time,status,PA,status,PR,status,RH,status,SR,status,TA,status,DirAvg,status,SpdAvg,
2009-05-10, 00:00:04,VALID,1008.14,VALID,0,VALID,88.8553,VALID,0,VALID,23.7135,VALID,183,VALID,0.0976563,
2009-05-10, 00:01:04,VALID,1008.15,VALID,0,VALID,88.8324,VALID,0.105969,VALID,23.7117,VALID,183,VALID,0,
2009-05-10, 00:02:04,VALID,1008.19,VALID,0,VALID,88.8477,VALID,0,VALID,23.7135,VALID,183,VALID,0,
2009-05-10, 00:03:04,VALID,1008.21,VALID,0,VALID,88.8629,VALID,0,VALID,23.7117,VALID,183,VALID,0,
2009-05-10, 00:04:04,VALID,1008.2,VALID,0,VALID,88.8782,VALID,0,VALID,23.7312,VALID,183,VALID,0,
2009-05-10, 00:05:04,VALID,1008.22,VALID,0,VALID,88.8782,VALID,0,VALID,23.733,VALID,183,VALID,0,
2009-05-10, 00:06:04,VALID,1008.21,VALID,0,VALID,88.8934,VALID,0,VALID,23.7117,VALID,183,VALID,0,
2009-05-10, 00:07:04,VALID,1008.18,VALID,0,VALID,88.8782,VALID,0.105969,VALID,23.6922,VALID,183,VALID,0,
2009-05-10, 00:08:04,VALID,1008.19,VALID,0,VALID,88.8782,VALID,0,VALID,23.7135,VALID,183,VALID,0,
2009-05-10, 00:09:05,VALID,1008.21,VALID,0,VALID,88.8858,VALID,0,VALID,23.694,VALID,183,VALID,0.344141,
2009-05-10, 00:10:05,VALID,1008.23,VALID,0,VALID,88.8858,VALID,0,VALID,23.694,VALID,183,VALID,0.194531,
2009-05-10, 00:11:05,VALID,1008.24,VALID,0,VALID,88.8782,VALID,0,VALID,23.6727,VALID,183,VALID,0.196094,
2009-05-10, 00:12:05,VALID,1008.26,VALID,0,VALID,88.8477,VALID,0,VALID,23.6745,VALID,183,VALID,0.207813,
2009-05-10, 00:13:05,VALID,1008.29,VALID,0,VALID,88.8782,VALID,0.105969,VALID,23.6338,VALID,183,VALID,0.0121094,
2009-05-10, 00:14:05,VALID,1008.28,VALID,0,VALID,88.8705,VALID,0.105969,VALID,23.655,VALID,183,VALID,0,
2009-05-10, 00:15:05,VALID,1008.27,VALID,0,VALID,88.901,VALID,0,VALID,23.6338,VALID,183,VALID,0,
2009-05-10, 00:16:05,VALID,1008.25,VALID,0,VALID,88.9087,VALID,0,VALID,23.6745,VALID,183,VALID,0,
2009-05-10, 00:17:05,VALID,1008.26,VALID,0,VALID,88.9163,VALID,0,VALID,23.6745,VALID,183,VALID,0,
2009-05-10, 00:18:05,VALID,1008.22,VALID,0,VALID,88.9087,VALID,0,VALID,23.6727,VALID,183,VALID,0,
2009-05-10, 00:19:05,VALID,1008.22,VALID,0,VALID,88.9239,VALID,0,VALID,23.7117,VALID,183,VALID,0,
2009-05-10, 00:20:05,VALID,1008.21,VALID,0,VALID,88.9087,VALID,0,VALID,23.7117,VALID,183,VALID,0,
2009-05-10, 00:21:05,VALID,1008.23,VALID,0,VALID,88.9087,VALID,0,VALID,23.6922,VALID,183,VALID,0.391016,
2009-05-10, 00:22:05,VALID,1008.23,VALID,0,VALID,88.9163,VALID,0,VALID,23.7135,VALID,183,VALID,0.498828,
2009-05-10, 00:23:05,VALID,1008.21,VALID,0,VALID,88.9163,VALID,0,VALID,23.694,VALID,183,VALID,0.408203,
2009-05-10, 00:24:05,VALID,1008.21,VALID,0,VALID,88.9087,VALID,0,VALID,23.6727,VALID,183,VALID,0.332422,
2009-05-10, 00:25:05,VALID,1008.19,VALID,0,VALID,88.9315,VALID,0,VALID,23.6532,VALID,183,VALID,0.187109,
2009-05-10, 00:26:05,VALID,1008.16,VALID,0,VALID,88.9163,VALID,0,VALID,23.6745,VALID,183,VALID,0,
2009-05-10, 00:27:05,VALID,1008.12,VALID,0,VALID,88.9315,VALID,0,VALID,23.655,VALID,183,VALID,0,
2009-05-10, 00:28:05,VALID,1008.08,VALID,0,VALID,88.9392,VALID,0,VALID,23.6532,VALID,183,VALID,0,
2009-05-10, 00:29:05,VALID,1008.05,VALID,0,VALID,88.9468,VALID,0,VALID,23.655,VALID,183,VALID,0,
2009-05-10, 00:30:05,VALID,1008.05,VALID,0,VALID,88.9544,VALID,0,VALID,23.6143,VALID,183,VALID,0,
2009-05-10, 00:31:05,VALID,1008.03,VALID,0,VALID,88.9468,VALID,0.105969,VALID,23.6338,VALID,183,VALID,0,
2009-05-10, 00:32:05,VALID,1008.02,VALID,0,VALID,88.9849,VALID,0,VALID,23.6356,VALID,183,VALID,0,
2009-05-10, 00:33:05,VALID,1008.01,VALID,0,VALID,89.023,VALID,0,VALID,23.6356,VALID,183,VALID,0,
2009-05-10, 00:34:05,VALID,1007.96,VALID,0,VALID,89.0154,VALID,0,VALID,23.6161,VALID,183,VALID,0,
2009-05-10, 00:35:05,VALID,1007.99,VALID,0,VALID,89.0154,VALID,0,VALID,23.6356,VALID,183,VALID,0,
2009-05-10, 00:36:05,VALID,1007.96,VALID,0,VALID,89.0459,VALID,0,VALID,23.6356,VALID,183,VALID,0,
2009-05-10, 00:37:05,VALID,1007.97,VALID,0,VALID,89.0307,VALID,0,VALID,23.6143,VALID,183,VALID,0,
2009-05-10, 00:38:05,VALID,1007.94,VALID,0,VALID,89.0536,VALID,0,VALID,23.5948,VALID,183,VALID,0,
2009-05-10, 00:39:05,VALID,1007.94,VALID,0,VALID,89.0536,VALID,0,VALID,23.5948,VALID,183,VALID,0,
2009-05-10, 00:40:05,VALID,1007.96,VALID,0,VALID,89.0459,VALID,0,VALID,23.6161,VALID,183,VALID,0,
2009-05-10, 00:41:05,VALID,1007.97,VALID,0,VALID,89.0536,VALID,0,VALID,23.5966,VALID,183,VALID,0,
2009-05-10, 00:42:05,VALID,1007.96,VALID,0,VALID,89.0307,VALID,0,VALID,23.5558,VALID,183,VALID,0,
2009-05-10, 00:43:05,VALID,1007.96,VALID,0,VALID,89.0459,VALID,0,VALID,23.5771,VALID,183,VALID,0,
2009-05-10, 00:44:05,VALID,1007.96,VALID,0,VALID,89.0383,VALID,0,VALID,23.5558,VALID,183,VALID,0,
2009-05-10, 00:45:05,VALID,1007.93,VALID,0,VALID,89.0307,VALID,0,VALID,23.5576,VALID,183,VALID,0,
2009-05-10, 00:46:05,VALID,1007.95,VALID,0,VALID,89.0307,VALID,0,VALID,23.5169,VALID,183,VALID,0.287109,
2009-05-10, 00:47:05,VALID,1007.9,VALID,0,VALID,89.023,VALID,0,VALID,23.4584,VALID,183,VALID,0.172266,
2009-05-10, 00:48:05,VALID,1007.89,VALID,0,VALID,89.0002,VALID,0,VALID,23.4602,VALID,183,VALID,0.220703,
2009-05-10, 00:49:05,VALID,1007.88,VALID,0,VALID,88.9849,VALID,0,VALID,23.4602,VALID,170,VALID,0.230469,
2009-05-10, 00:50:05,VALID,1007.86,VALID,0,VALID,88.9925,VALID,0,VALID,23.4584,VALID,144,VALID,0.574219,
2009-05-10, 00:51:05,VALID,1007.81,VALID,0,VALID,89.0002,VALID,0,VALID,23.4992,VALID,144,VALID,0.533203,
2009-05-10, 00:52:05,VALID,1007.82,VALID,0,VALID,89.023,VALID,0,VALID,23.4992,VALID,144,VALID,0.471094,
2009-05-10, 00:53:05,VALID,1007.81,VALID,0,VALID,89.023,VALID,0,VALID,23.4602,VALID,144,VALID,0.296094,
2009-05-10, 00:54:05,VALID,1007.75,VALID,0,VALID,89.0383,VALID,0,VALID,23.4602,VALID,144,VALID,0,
2009-05-10, 00:55:05,VALID,1007.73,VALID,0,VALID,89.0307,VALID,0,VALID,23.4797,VALID,144,VALID,0,
2009-05-10, 00:56:05,VALID,1007.73,VALID,0,VALID,89.0536,VALID,0,VALID,23.4797,VALID,144,VALID,0,
2009-05-10, 00:57:05,VALID,1007.68,VALID,0,VALID,89.0688,VALID,0,VALID,23.4797,VALID,144,VALID,0,
2009-05-10, 00:58:05,VALID,1007.69,VALID,0,VALID,89.0688,VALID,0,VALID,23.4992,VALID,144,VALID,0,
2009-05-10, 00:59:05,VALID,1007.69,VALID,0,VALID,89.0764,VALID,0,VALID,23.4992,VALID,144,VALID,0,
2009-05-10, 01:00:05,VALID,1007.68,VALID,0,VALID,89.0764,VALID,0,VALID,23.4797,VALID,144,VALID,0.216406,
2009-05-10, 01:01:05,VALID,1007.69,VALID,0,VALID,89.0841,VALID,0,VALID,23.4992,VALID,24,VALID,0.275391,
2009-05-10, 01:02:05,VALID,1007.71,VALID,0,VALID,89.1069,VALID,0,VALID,23.5186,VALID,13,VALID,0.464453,
2009-05-10, 01:03:05,VALID,1007.69,VALID,0,VALID,89.1222,VALID,0,VALID,23.5186,VALID,13,VALID,0.486719,
2009-05-10, 01:04:05,VALID,1007.71,VALID,0,VALID,89.1146,VALID,0,VALID,23.5186,VALID,12,VALID,0.349609,
2009-05-10, 01:05:05,VALID,1007.69,VALID,0,VALID,89.1298,VALID,0,VALID,23.5186,VALID,12,VALID,0.267969,
2009-05-10, 01:06:05,VALID,1007.68,VALID,0,VALID,89.1222,VALID,0,VALID,23.5186,VALID,12,VALID,0.0945313,
2009-05-10, 01:07:05,VALID,1007.7,VALID,0,VALID,89.1222,VALID,0,VALID,23.4992,VALID,12,VALID,0,
2009-05-10, 01:08:05,VALID,1007.69,VALID,0,VALID,89.1374,VALID,0,VALID,23.4797,VALID,12,VALID,0,
2009-05-10, 01:09:05,VALID,1007.68,VALID,0,VALID,89.1527,VALID,0,VALID,23.4992,VALID,12,VALID,0,
2009-05-10, 01:10:05,VALID,1007.69,VALID,0,VALID,89.1298,VALID,0,VALID,23.4797,VALID,12,VALID,0,
2009-05-10, 01:11:05,VALID,1007.69,VALID,0,VALID,89.1679,VALID,0,VALID,23.4992,VALID,12,VALID,0,
2009-05-10, 01:12:05,VALID,1007.7,VALID,0,VALID,89.1756,VALID,0,VALID,23.5186,VALID,12,VALID,0,
2009-05-10, 01:13:05,VALID,1007.69,VALID,0,VALID,89.1756,VALID,0,VALID,23.5381,VALID,12,VALID,0.00585938,
2009-05-10, 01:14:05,VALID,1007.67,VALID,0,VALID,89.1908,VALID,0,VALID,23.5381,VALID,12,VALID,0.111719,
2009-05-10, 01:15:05,VALID,1007.62,VALID,0,VALID,89.1756,VALID,0,VALID,23.5186,VALID,12,VALID,0,
2009-05-10, 01:16:05,VALID,1007.6,VALID,0,VALID,89.1756,VALID,0,VALID,23.4992,VALID,12,VALID,0,
2009-05-10, 01:17:05,VALID,1007.63,VALID,0,VALID,89.1527,VALID,0,VALID,23.4797,VALID,12,VALID,0.295312,
2009-05-10, 01:18:05,VALID,1007.64,VALID,0,VALID,89.1603,VALID,0,VALID,23.4815,VALID,12,VALID,0.253906,
2009-05-10, 01:19:05,VALID,1007.6,VALID,0,VALID,89.1603,VALID,0,VALID,23.4407,VALID,12,VALID,0.141797,
2009-05-10, 01:20:05,VALID,1007.63,VALID,0,VALID,89.1451,VALID,0,VALID,23.4407,VALID,12,VALID,0,
2009-05-10, 01:21:05,VALID,1007.59,VALID,0,VALID,89.1527,VALID,0,VALID,23.4407,VALID,12,VALID,0,
2009-05-10, 01:22:05,VALID,1007.65,VALID,0,VALID,89.1832,VALID,0,VALID,23.4194,VALID,12,VALID,0,
2009-05-10, 01:23:05,VALID,1007.65,VALID,0,VALID,89.1832,VALID,0,VALID,23.4797,VALID,12,VALID,0,
2009-05-10, 01:24:05,VALID,1007.68,VALID,0,VALID,89.1984,VALID,0,VALID,23.4992,VALID,336,VALID,0.247266,
2009-05-10, 01:25:05,VALID,1007.67,VALID,0,VALID,89.2137,VALID,0,VALID,23.4992,VALID,317,VALID,0.427344,
2009-05-10, 01:26:05,VALID,1007.68,VALID,0,VALID,89.1984,VALID,0,VALID,23.4779,VALID,317,VALID,0.334766,
2009-05-10, 01:27:05,VALID,1007.67,VALID,0,VALID,89.1908,VALID,0,VALID,23.4992,VALID,317,VALID,0.351953,
2009-05-10, 01:28:05,VALID,1007.64,VALID,0,VALID,89.1756,VALID,0,VALID,23.4584,VALID,317,VALID,0.315234,
2009-05-10, 01:29:05,VALID,1007.61,VALID,0,VALID,89.1832,VALID,0,VALID,23.4992,VALID,317,VALID,0.294141,
2009-05-10, 01:30:05,VALID,1007.58,VALID,0,VALID,89.1679,VALID,0,VALID,23.4389,VALID,317,VALID,0.238672,
2009-05-10, 01:31:05,VALID,1007.57,VALID,0,VALID,89.1679,VALID,0,VALID,23.4407,VALID,317,VALID,0.3,
2009-05-10, 01:32:05,VALID,1007.56,VALID,0,VALID,89.1679,VALID,0,VALID,23.4212,VALID,317,VALID,0.241406,
2009-05-10, 01:33:05,VALID,1007.56,VALID,0,VALID,89.1908,VALID,0,VALID,23.4,VALID,317,VALID,0.239844,
2009-05-10, 01:34:05,VALID,1007.53,VALID,0,VALID,89.1908,VALID,0,VALID,23.4212,VALID,317,VALID,0.279297,
2009-05-10, 01:35:05,VALID,1007.55,VALID,0,VALID,89.1908,VALID,0,VALID,23.4212,VALID,317,VALID,0.203516,
2009-05-10, 01:36:05,VALID,1007.52,VALID,0,VALID,89.1984,VALID,0,VALID,23.4212,VALID,317,VALID,0.227734,
2009-05-10, 01:37:05,VALID,1007.52,VALID,0,VALID,89.1908,VALID,0,VALID,23.4212,VALID,317,VALID,0.166406,
2009-05-10, 01:38:05,VALID,1007.51,VALID,0,VALID,89.2137,VALID,0,VALID,23.4407,VALID,317,VALID,0.276563,
2009-05-10, 01:39:05,VALID,1007.5,VALID,0,VALID,89.2289,VALID,0,VALID,23.4407,VALID,317,VALID,0.174219,
2009-05-10, 01:40:05,VALID,1007.5,VALID,0,VALID,89.2213,VALID,0,VALID,23.4407,VALID,317,VALID,0.136328,
2009-05-10, 01:41:05,VALID,1007.49,VALID,0,VALID,89.2366,VALID,0,VALID,23.4407,VALID,317,VALID,0.302344,
2009-05-10, 01:42:05,VALID,1007.49,VALID,0,VALID,89.2366,VALID,0,VALID,23.4212,VALID,317,VALID,0.280859,
2009-05-10, 01:43:05,VALID,1007.48,VALID,0,VALID,89.2747,VALID,0,VALID,23.4212,VALID,317,VALID,0.185937,
2009-05-10, 01:44:05,VALID,1007.49,VALID,0,VALID,89.2671,VALID,0,VALID,23.4017,VALID,317,VALID,0.293359,
2009-05-10, 01:45:05,VALID,1007.49,VALID,0,VALID,89.2823,VALID,0,VALID,23.4407,VALID,317,VALID,0.2625,
2009-05-10, 01:46:05,VALID,1007.47,VALID,0,VALID,89.2899,VALID,0,VALID,23.4602,VALID,317,VALID,0.275,
2009-05-10, 01:47:05,VALID,1007.5,VALID,0,VALID,89.3128,VALID,0,VALID,23.4602,VALID,317,VALID,0.322656,
2009-05-10, 01:48:05,VALID,1007.46,VALID,0,VALID,89.2976,VALID,0,VALID,23.4407,VALID,317,VALID,0.235156,
2009-05-10, 01:49:05,VALID,1007.49,VALID,0,VALID,89.3052,VALID,0,VALID,23.4212,VALID,317,VALID,0,
2009-05-10, 01:50:05,VALID,1007.47,VALID,0,VALID,89.2976,VALID,0,VALID,23.423,VALID,317,VALID,0,
2009-05-10, 01:51:05,VALID,1007.45,VALID,0,VALID,89.3128,VALID,0,VALID,23.3823,VALID,317,VALID,0,
2009-05-10, 01:52:05,VALID,1007.45,VALID,0,VALID,89.2976,VALID,0,VALID,23.3823,VALID,317,VALID,0,
2009-05-10, 01:53:05,VALID,1007.43,VALID,0,VALID,89.3052,VALID,0,VALID,23.3823,VALID,317,VALID,0,
2009-05-10, 01:54:05,VALID,1007.37,VALID,0,VALID,89.2976,VALID,0,VALID,23.3628,VALID,317,VALID,0,
2009-05-10, 01:55:05,VALID,1007.34,VALID,0,VALID,89.2899,VALID,0,VALID,23.3433,VALID,317,VALID,0,
2009-05-10, 01:56:05,VALID,1007.33,VALID,0,VALID,89.2976,VALID,0,VALID,23.3238,VALID,317,VALID,0,
2009-05-10, 01:57:05,VALID,1007.32,VALID,0,VALID,89.2747,VALID,0,VALID,23.2848,VALID,318,VALID,0.153516,
2009-05-10, 01:58:05,VALID,1007.31,VALID,0,VALID,89.2671,VALID,0,VALID,23.2654,VALID,57,VALID,0.490625,
2009-05-10, 01:59:05,VALID,1007.32,VALID,0,VALID,89.2899,VALID,0,VALID,23.2848,VALID,63,VALID,0.459766,
2009-05-10, 02:00:05,VALID,1007.3,VALID,0,VALID,89.2976,VALID,0.105969,VALID,23.2831,VALID,63,VALID,0.523828,
2009-05-10, 02:01:05,VALID,1007.29,VALID,0,VALID,89.2899,VALID,0,VALID,23.3026,VALID,63,VALID,0.444141,
2009-05-10, 02:02:05,VALID,1007.24,VALID,0,VALID,89.3204,VALID,0,VALID,23.3043,VALID,64,VALID,0.491406,
2009-05-10, 02:03:05,VALID,1007.22,VALID,0,VALID,89.3052,VALID,0.105969,VALID,23.3026,VALID,85,VALID,0.741016,
2009-05-10, 02:04:05,VALID,1007.22,VALID,0,VALID,89.3128,VALID,0,VALID,23.2831,VALID,85,VALID,0.808594,
2009-05-10, 02:05:05,VALID,1007.23,VALID,0,VALID,89.3128,VALID,0,VALID,23.3043,VALID,85,VALID,0.698438,
2009-05-10, 02:06:05,VALID,1007.24,VALID,0,VALID,89.2976,VALID,0.105969,VALID,23.2441,VALID,84,VALID,0.689453,
2009-05-10, 02:07:05,VALID,1007.24,VALID,0,VALID,89.3128,VALID,0,VALID,23.2654,VALID,55,VALID,0.294922,
2009-05-10, 02:08:05,VALID,1007.29,VALID,0,VALID,89.3204,VALID,0,VALID,23.2654,VALID,27,VALID,0.250391,
2009-05-10, 02:09:05,VALID,1007.32,VALID,0,VALID,89.2976,VALID,0,VALID,23.2654,VALID,27,VALID,0.173047,
2009-05-10, 02:10:05,VALID,1007.31,VALID,0,VALID,89.3052,VALID,0,VALID,23.2654,VALID,27,VALID,0,
2009-05-10, 02:11:05,VALID,1007.34,VALID,0,VALID,89.2899,VALID,0,VALID,23.2441,VALID,27,VALID,0,
2009-05-10, 02:12:05,VALID,1007.33,VALID,0,VALID,89.3052,VALID,0,VALID,23.2441,VALID,27,VALID,0,
2009-05-10, 02:13:05,VALID,1007.34,VALID,0,VALID,89.3128,VALID,0,VALID,23.2654,VALID,27,VALID,0,
2009-05-10, 02:14:05,VALID,1007.32,VALID,0,VALID,89.3357,VALID,0,VALID,23.2441,VALID,27,VALID,0,
2009-05-10, 02:15:05,VALID,1007.35,VALID,0,VALID,89.3433,VALID,0,VALID,23.2459,VALID,27,VALID,0.0234375,
2009-05-10, 02:16:05,VALID,1007.34,VALID,0,VALID,89.3204,VALID,0,VALID,23.2246,VALID,27,VALID,0,
2009-05-10, 02:17:05,VALID,1007.3,VALID,0,VALID,89.3357,VALID,0,VALID,23.2246,VALID,27,VALID,0,
2009-05-10, 02:18:05,VALID,1007.31,VALID,0,VALID,89.3204,VALID,0,VALID,23.2264,VALID,27,VALID,0,
2009-05-10, 02:19:05,VALID,1007.33,VALID,0,VALID,89.3357,VALID,0,VALID,23.2069,VALID,27,VALID,0,
2009-05-10, 02:20:05,VALID,1007.36,VALID,0,VALID,89.3204,VALID,0,VALID,23.1874,VALID,27,VALID,0.0148437,
2009-05-10, 02:21:05,VALID,1007.37,VALID,0,VALID,89.3433,VALID,0,VALID,23.1662,VALID,27,VALID,0,
2009-05-10, 02:22:05,VALID,1007.4,VALID,0,VALID,89.3357,VALID,0,VALID,23.1467,VALID,27,VALID,0,
2009-05-10, 02:23:05,VALID,1007.43,VALID,0,VALID,89.3357,VALID,0,VALID,23.1662,VALID,27,VALID,0,
2009-05-10, 02:24:05,VALID,1007.49,VALID,0,VALID,89.351,VALID,0,VALID,23.1857,VALID,27,VALID,0,
2009-05-10, 02:25:05,VALID,1007.52,VALID,0,VALID,89.3586,VALID,0,VALID,23.2264,VALID,27,VALID,0,
2009-05-10, 02:26:05,VALID,1007.54,VALID,0,VALID,89.351,VALID,0,VALID,23.2264,VALID,27,VALID,0,
2009-05-10, 02:27:05,VALID,1007.56,VALID,0,VALID,89.3662,VALID,0,VALID,23.2264,VALID,27,VALID,0,
2009-05-10, 02:28:05,VALID,1007.57,VALID,0,VALID,89.3738,VALID,0,VALID,23.2246,VALID,27,VALID,0,
2009-05-10, 02:29:05,VALID,1007.57,VALID,0,VALID,89.3967,VALID,0,VALID,23.2051,VALID,27,VALID,0,
2009-05-10, 02:30:05,VALID,1007.58,VALID,0,VALID,89.3891,VALID,0,VALID,23.2264,VALID,27,VALID,0,
2009-05-10, 02:31:05,VALID,1007.6,VALID,0,VALID,89.3662,VALID,0,VALID,23.1874,VALID,27,VALID,0,
2009-05-10, 02:32:05,VALID,1007.58,VALID,0,VALID,89.3738,VALID,0,VALID,23.1679,VALID,27,VALID,0,
2009-05-10, 02:33:05,VALID,1007.6,VALID,0,VALID,89.3738,VALID,0,VALID,23.1485,VALID,27,VALID,0,
2009-05-10, 02:34:05,VALID,1007.55,VALID,0,VALID,89.3586,VALID,0.105969,VALID,23.1272,VALID,27,VALID,0,
2009-05-10, 02:35:05,VALID,1007.52,VALID,0,VALID,89.3738,VALID,0,VALID,23.1077,VALID,27,VALID,0,
2009-05-10, 02:36:05,VALID,1007.47,VALID,0,VALID,89.3815,VALID,0,VALID,23.129,VALID,27,VALID,0,
2009-05-10, 02:37:05,VALID,1007.4,VALID,0,VALID,89.3586,VALID,0,VALID,23.1077,VALID,27,VALID,0.232812,
2009-05-10, 02:38:05,VALID,1007.37,VALID,0,VALID,89.3586,VALID,0,VALID,23.129,VALID,27,VALID,0.329297,
2009-05-10, 02:39:05,VALID,1007.35,VALID,0,VALID,89.3738,VALID,0,VALID,23.1485,VALID,38,VALID,0.464063,
2009-05-10, 02:40:05,VALID,1007.34,VALID,0,VALID,89.3662,VALID,0,VALID,23.1467,VALID,97,VALID,0.544922,
2009-05-10, 02:41:05,VALID,1007.32,VALID,0,VALID,89.3815,VALID,0.105969,VALID,23.1272,VALID,99,VALID,0.657422,
2009-05-10, 02:42:05,VALID,1007.3,VALID,0,VALID,89.3738,VALID,0,VALID,23.1272,VALID,98,VALID,0.572656,
2009-05-10, 02:43:05,VALID,1007.32,VALID,0,VALID,89.3891,VALID,0,VALID,23.129,VALID,98,VALID,0.302734,
2009-05-10, 02:44:05,VALID,1007.31,VALID,0,VALID,89.3815,VALID,0,VALID,23.1077,VALID,98,VALID,0,
2009-05-10, 02:45:05,VALID,1007.29,VALID,0,VALID,89.3815,VALID,0,VALID,23.0883,VALID,98,VALID,0,
2009-05-10, 02:46:05,VALID,1007.29,VALID,0,VALID,89.3815,VALID,0.105969,VALID,23.0883,VALID,98,VALID,0.303125,
2009-05-10, 02:47:05,VALID,1007.26,VALID,0,VALID,89.3815,VALID,0,VALID,23.0883,VALID,98,VALID,0.149219,
2009-05-10, 02:48:05,VALID,1007.28,VALID,0,VALID,89.3662,VALID,0,VALID,23.09,VALID,98,VALID,0.0179687,
2009-05-10, 02:49:05,VALID,1007.31,VALID,0,VALID,89.3662,VALID,0,VALID,23.0688,VALID,98,VALID,0.147656,
2009-05-10, 02:50:05,VALID,1007.3,VALID,0,VALID,89.3891,VALID,0,VALID,23.1095,VALID,98,VALID,0.214062,
2009-05-10, 02:51:05,VALID,1007.31,VALID,0,VALID,89.3967,VALID,0.105969,VALID,23.129,VALID,99,VALID,0.0539063,
2009-05-10, 02:52:05,VALID,1007.3,VALID,0,VALID,89.3891,VALID,0,VALID,23.129,VALID,99,VALID,0,
2009-05-10, 02:53:04,VALID,1007.29,VALID,0,VALID,89.4043,VALID,0,VALID,23.129,VALID,98,VALID,0,
2009-05-10, 02:54:04,VALID,1007.28,VALID,0,VALID,89.3738,VALID,0,VALID,23.1077,VALID,99,VALID,0,
2009-05-10, 02:55:04,VALID,1007.24,VALID,0,VALID,89.3967,VALID,0,VALID,23.0883,VALID,99,VALID,0,
2009-05-10, 02:56:04,VALID,1007.22,VALID,0,VALID,89.3891,VALID,0,VALID,23.1077,VALID,98,VALID,0,
2009-05-10, 02:57:04,VALID,1007.22,VALID,0,VALID,89.3891,VALID,0,VALID,23.1077,VALID,98,VALID,0,
2009-05-10, 02:58:04,VALID,1007.21,VALID,0,VALID,89.3815,VALID,0,VALID,23.1485,VALID,98,VALID,0,
2009-05-10, 02:59:04,VALID,1007.15,VALID,0,VALID,89.3815,VALID,0,VALID,23.1272,VALID,327,VALID,0.196875,
2009-05-10, 03:00:04,VALID,1007.1,VALID,0,VALID,89.3662,VALID,0,VALID,23.1077,VALID,327,VALID,0.0457031,
2009-05-10, 03:01:04,VALID,1007.1,VALID,0,VALID,89.3738,VALID,0.105969,VALID,23.1077,VALID,327,VALID,0,
2009-05-10, 03:02:04,VALID,1007.07,VALID,0,VALID,89.3738,VALID,0,VALID,23.0883,VALID,327,VALID,0,
2009-05-10, 03:03:04,VALID,1007.03,VALID,0,VALID,89.3662,VALID,0.105969,VALID,23.0883,VALID,327,VALID,0,
2009-05-10, 03:04:04,VALID,1007.03,VALID,0,VALID,89.351,VALID,0.105969,VALID,23.0688,VALID,327,VALID,0,
2009-05-10, 03:05:04,VALID,1007.02,VALID,0,VALID,89.3357,VALID,0,VALID,23.0688,VALID,327,VALID,0,
2009-05-10, 03:06:04,VALID,1007.03,VALID,0,VALID,89.3433,VALID,0,VALID,23.0705,VALID,327,VALID,0,
2009-05-10, 03:07:04,VALID,1007.02,VALID,0,VALID,89.351,VALID,0,VALID,23.0705,VALID,327,VALID,0,
2009-05-10, 03:08:04,VALID,1007.07,VALID,0,VALID,89.3433,VALID,0,VALID,23.0316,VALID,327,VALID,0,
2009-05-10, 03:09:04,VALID,1007.04,VALID,0,VALID,89.3357,VALID,0,VALID,22.9909,VALID,219,VALID,0.531641,
2009-05-10, 03:10:04,VALID,1007.08,VALID,0,VALID,89.3128,VALID,0,VALID,22.9519,VALID,218,VALID,0.536328,
2009-05-10, 03:11:04,VALID,1007.11,VALID,0,VALID,89.3128,VALID,0,VALID,22.9342,VALID,218,VALID,0.360547,
2009-05-10, 03:12:04,VALID,1007.14,VALID,0,VALID,89.3281,VALID,0.105969,VALID,22.9324,VALID,218,VALID,0.329688,
2009-05-10, 03:13:04,VALID,1007.15,VALID,0,VALID,89.3433,VALID,0,VALID,23.0121,VALID,218,VALID,0.346484,
2009-05-10, 03:14:04,VALID,1007.16,VALID,0,VALID,89.3586,VALID,0,VALID,23.0705,VALID,218,VALID,0.283203,
2009-05-10, 03:15:04,VALID,1007.18,VALID,0,VALID,89.3891,VALID,0,VALID,23.09,VALID,218,VALID,0.160547,
2009-05-10, 03:16:04,VALID,1007.19,VALID,0,VALID,89.3967,VALID,0,VALID,23.1077,VALID,218,VALID,0.460938,
2009-05-10, 03:17:04,VALID,1007.18,VALID,0,VALID,89.4043,VALID,0,VALID,23.129,VALID,218,VALID,0.422656,
2009-05-10, 03:18:04,VALID,1007.23,VALID,0,VALID,89.3967,VALID,0,VALID,23.1095,VALID,218,VALID,0.497656,
2009-05-10, 03:19:04,VALID,1007.2,VALID,0,VALID,89.3891,VALID,0,VALID,23.0883,VALID,218,VALID,0.277344,
2009-05-10, 03:20:04,VALID,1007.23,VALID,0,VALID,89.3815,VALID,0,VALID,23.0493,VALID,218,VALID,0.278125,
2009-05-10, 03:21:04,VALID,1007.24,VALID,0,VALID,89.3967,VALID,0,VALID,23.0705,VALID,218,VALID,0,
2009-05-10, 03:22:04,VALID,1007.25,VALID,0,VALID,89.4272,VALID,0,VALID,23.09,VALID,218,VALID,0,
2009-05-10, 03:23:04,VALID,1007.24,VALID,0,VALID,89.3967,VALID,0,VALID,23.0688,VALID,218,VALID,0,
2009-05-10, 03:24:04,VALID,1007.22,VALID,0,VALID,89.3967,VALID,0,VALID,23.0511,VALID,218,VALID,0,
2009-05-10, 03:25:04,VALID,1007.19,VALID,0,VALID,89.3967,VALID,0,VALID,22.9731,VALID,218,VALID,0,
2009-05-10, 03:26:04,VALID,1007.12,VALID,0,VALID,89.4043,VALID,0,VALID,22.9731,VALID,106,VALID,0,
2009-05-10, 03:27:04,VALID,1007.06,VALID,0,VALID,89.3967,VALID,0,VALID,22.9909,VALID,94,VALID,0,
2009-05-10, 03:28:04,VALID,1007.04,VALID,0,VALID,89.4272,VALID,0,VALID,22.9909,VALID,72,VALID,0.605469,
2009-05-10, 03:29:04,VALID,1006.97,VALID,0,VALID,89.4196,VALID,0,VALID,23.0298,VALID,62,VALID,0.557813,
2009-05-10, 03:30:04,VALID,1006.93,VALID,0,VALID,89.4348,VALID,0.105969,VALID,23.0493,VALID,62,VALID,0.675781,
2009-05-10, 03:31:04,VALID,1006.92,VALID,0,VALID,89.4348,VALID,0,VALID,23.1095,VALID,62,VALID,0.650391,
2009-05-10, 03:32:04,VALID,1006.92,VALID,0,VALID,89.4425,VALID,0,VALID,23.1272,VALID,66,VALID,0.923828,
2009-05-10, 03:33:04,VALID,1006.9,VALID,0,VALID,89.4577,VALID,0,VALID,23.1679,VALID,67,VALID,0.574609,
2009-05-10, 03:34:04,VALID,1006.95,VALID,0,VALID,89.4501,VALID,0,VALID,23.1467,VALID,67,VALID,0.601953,
2009-05-10, 03:35:04,VALID,1006.97,VALID,0,VALID,89.4577,VALID,0,VALID,23.129,VALID,58,VALID,0.475,
2009-05-10, 03:36:04,VALID,1007,VALID,0,VALID,89.473,VALID,0,VALID,23.1077,VALID,53,VALID,0.24375,
2009-05-10, 03:37:04,VALID,1007.06,VALID,0,VALID,89.473,VALID,0,VALID,23.1095,VALID,53,VALID,0.585547,
2009-05-10, 03:38:04,VALID,1007.07,VALID,0,VALID,89.4425,VALID,0,VALID,23.1095,VALID,53,VALID,0.4375,
2009-05-10, 03:39:04,VALID,1007.06,VALID,0,VALID,89.4425,VALID,0,VALID,23.1095,VALID,53,VALID,0.547656,
2009-05-10, 03:40:04,VALID,1007.04,VALID,0,VALID,89.473,VALID,0,VALID,23.1095,VALID,53,VALID,0.608984,
2009-05-10, 03:41:04,VALID,1007.03,VALID,0,VALID,89.4806,VALID,0,VALID,23.0705,VALID,56,VALID,0.469141,
2009-05-10, 03:42:04,VALID,1007.03,VALID,0,VALID,89.473,VALID,0,VALID,23.0298,VALID,56,VALID,0.317578,
2009-05-10, 03:43:04,VALID,1007.01,VALID,0,VALID,89.4577,VALID,0,VALID,23.0298,VALID,59,VALID,0.670703,
2009-05-10, 03:44:04,VALID,1007,VALID,0,VALID,89.473,VALID,0,VALID,23.0103,VALID,68,VALID,0.325,
2009-05-10, 03:45:04,VALID,1007.02,VALID,0,VALID,89.4577,VALID,0.105969,VALID,22.9909,VALID,60,VALID,0.534766,
2009-05-10, 03:46:04,VALID,1006.99,VALID,0,VALID,89.4806,VALID,0.105969,VALID,23.0103,VALID,60,VALID,0.303125,
2009-05-10, 03:47:04,VALID,1006.99,VALID,0,VALID,89.4806,VALID,0.105969,VALID,22.9909,VALID,60,VALID,0.415234,
2009-05-10, 03:48:04,VALID,1006.99,VALID,0,VALID,89.4958,VALID,0.105969,VALID,23.0103,VALID,60,VALID,0.207813,
2009-05-10, 03:49:04,VALID,1006.98,VALID,0,VALID,89.4958,VALID,0.105969,VALID,22.9909,VALID,60,VALID,0.266016,
2009-05-10, 03:50:04,VALID,1006.95,VALID,0,VALID,89.4958,VALID,0.105969,VALID,22.9696,VALID,60,VALID,0.283984,
2009-05-10, 03:51:04,VALID,1006.95,VALID,0,VALID,89.5035,VALID,0.105969,VALID,22.9909,VALID,60,VALID,0,